Algona, IA

11:07 AM CDT on April 27, 2017 (GMT -0500)
Algona Municipal

Weather History for KAXA - August, 2012

Change the Weather History Date:

Thursday, August 23, 2012

  Actual Average Record
Temperature  
Mean Temperature 76 °F -  
Max Temperature 89 °F 78 °F 89 °F (1998)
Min Temperature 64 °F 59 °F 50 °F (1996)
Cooling Degree Days 12    
Growing Degree Days 26 (Base 50)    
Moisture  
Dew Point 58 °F    
Average Humidity 53    
Maximum Humidity 68    
Minimum Humidity 36    
Precipitation  
Precipitation 0.00 in - - ()
Sea Level Pressure  
Sea Level Pressure 29.90 in    
Wind  
Wind Speed 12 mph (SSW)    
Max Wind Speed 29 mph    
Max Gust Speed 39 mph    
Visibility 10 miles    
Events      
Averages and records for this station are not official NWS values.
T = Trace of Precipitation, MM = Missing Value Source: NWS Daily Summary

Daily Weather History Graph

Daily Weather History Graph

Search for Another Location

Airport or City:

Trip Planner

Search our weather history database for the weather conditions in past years. The results will help you decide how hot, cold, wet, or windy it might be!

Date:

Astronomy

Aug. 23, 2012 Rise Set
Actual Time 6:32 AM CDT 8:06 PM CDT
Civil Twilight 6:02 AM CDT 8:35 PM CDT
Nautical Twilight 5:25 AM CDT 9:12 PM CDT
Astronomical Twilight 4:47 AM CDT 9:50 PM CDT
Moon 1:33 PM CDT (8/23) 11:22 PM CDT (8/23)
Length of Visible Light 14h 33m
Length of Day
13h 34m
Waxing Crescent, 40% of the Moon is Illuminated
Aug 23
Waxing Crescent
Aug 24
First Quarter
Aug 31
Full
Sep 8
Last Quarter
Sep 15
New

Hourly Weather History & Observations

Time (CDT) Temp. Heat Index Dew Point Humidity Pressure Visibility Wind Dir Wind Speed Gust Speed Precip Events Conditions
12:15 AM 68.0 °F - 55.4 °F 64% 29.92 in 10.0 mi South 8.1 mph - N/A   Clear
12:35 AM 69.8 °F - 55.4 °F 60% 29.92 in 10.0 mi South 8.1 mph - N/A   Clear
12:55 AM 68.0 °F - 55.4 °F 64% 29.93 in 10.0 mi South 6.9 mph - N/A   Clear
1:15 AM 68.0 °F - 55.4 °F 64% 29.93 in 10.0 mi South 9.2 mph - N/A   Clear
1:35 AM 68.0 °F - 55.4 °F 64% 29.92 in 10.0 mi South 9.2 mph - N/A   Clear
1:55 AM 66.2 °F - 55.4 °F 68% 29.92 in 10.0 mi South 9.2 mph - N/A   Clear
2:15 AM 66.2 °F - 55.4 °F 68% 29.91 in 10.0 mi South 8.1 mph - N/A   Clear
2:35 AM 66.2 °F - 55.4 °F 68% 29.91 in 10.0 mi South 9.2 mph - N/A   Clear
3:15 AM 66.2 °F - 53.6 °F 64% 29.92 in 10.0 mi South 8.1 mph - N/A   Clear
3:35 AM 64.4 °F - 53.6 °F 68% 29.92 in 10.0 mi South 8.1 mph - N/A   Clear
3:55 AM 64.4 °F - 53.6 °F 68% 29.93 in 10.0 mi South 6.9 mph - N/A   Clear
4:15 AM 64.4 °F - 53.6 °F 68% 29.93 in 10.0 mi South 9.2 mph - N/A   Clear
4:35 AM 64.4 °F - 53.6 °F 68% 29.93 in 10.0 mi South 8.1 mph - N/A   Clear
4:55 AM 64.4 °F - 53.6 °F 68% 29.93 in 10.0 mi South 9.2 mph - N/A   Clear
5:15 AM 64.4 °F - 53.6 °F 68% 29.93 in 10.0 mi South 10.4 mph - N/A   Clear
5:35 AM 64.4 °F - 53.6 °F 68% 29.94 in 10.0 mi South 9.2 mph - N/A   Clear
5:55 AM 64.4 °F - 53.6 °F 68% 29.94 in 10.0 mi South 9.2 mph - N/A   Clear
6:15 AM 64.4 °F - 53.6 °F 68% 29.95 in 10.0 mi South 10.4 mph - N/A   Clear
6:35 AM 64.4 °F - 53.6 °F 68% 29.94 in 10.0 mi South 11.5 mph - N/A   Clear
6:55 AM 64.4 °F - 53.6 °F 68% 29.94 in 10.0 mi South 11.5 mph - N/A   Clear
7:15 AM 64.4 °F - 53.6 °F 68% 29.94 in 10.0 mi South 12.7 mph - N/A   Clear
7:35 AM 64.4 °F - 53.6 °F 68% 29.94 in 10.0 mi South 11.5 mph - N/A   Clear
7:55 AM 66.2 °F - 53.6 °F 64% 29.94 in 10.0 mi South 12.7 mph - N/A   Clear
8:15 AM 68.0 °F - 53.6 °F 60% 29.94 in 10.0 mi South 12.7 mph - N/A   Clear
8:35 AM 69.8 °F - 55.4 °F 60% 29.94 in 10.0 mi South 11.5 mph - N/A   Clear
8:55 AM 71.6 °F - 55.4 °F 57% 29.94 in 10.0 mi South 12.7 mph - N/A   Clear
9:15 AM 73.4 °F - 55.4 °F 53% 29.94 in 10.0 mi South 12.7 mph - N/A   Clear
9:35 AM 75.2 °F - 57.2 °F 53% 29.94 in 10.0 mi SSW 12.7 mph - N/A   Clear
9:55 AM 78.8 °F - 59.0 °F 51% 29.94 in 10.0 mi SSW 10.4 mph 17.3 mph N/A   Clear
10:15 AM 80.6 °F 81.5 °F 60.8 °F 51% 29.93 in 10.0 mi SSW 15.0 mph - N/A   Clear
10:35 AM 80.6 °F 81.8 °F 62.6 °F 54% 29.94 in 10.0 mi SW 15.0 mph 23.0 mph N/A   Clear
10:55 AM 80.6 °F 81.8 °F 62.6 °F 54% 29.93 in 10.0 mi SSW 18.4 mph 26.5 mph N/A   Clear
11:15 AM 80.6 °F 81.8 °F 62.6 °F 54% 29.93 in 10.0 mi SSW 18.4 mph 24.2 mph N/A   Clear
11:35 AM 84.2 °F 85.6 °F 64.4 °F 51% 29.92 in 10.0 mi SSW 19.6 mph 26.5 mph N/A   Clear
11:55 AM 86.0 °F 87.3 °F 64.4 °F 48% 29.91 in 10.0 mi SSW 19.6 mph 29.9 mph N/A   Clear
12:15 PM 86.0 °F 86.6 °F 62.6 °F 45% 29.91 in 10.0 mi SSW 25.3 mph 33.4 mph N/A   Scattered Clouds
12:35 PM 84.2 °F 85.0 °F 62.6 °F 48% 29.90 in 10.0 mi SSW 20.7 mph 35.7 mph N/A   Mostly Cloudy
12:55 PM 86.0 °F 86.6 °F 62.6 °F 45% 29.89 in 10.0 mi SSW 24.2 mph 32.2 mph N/A   Mostly Cloudy
1:15 PM 87.8 °F 87.6 °F 60.8 °F 40% 29.88 in 10.0 mi South 28.8 mph 38.0 mph N/A   Scattered Clouds
1:35 PM 87.8 °F 87.6 °F 60.8 °F 40% 29.88 in 10.0 mi South 28.8 mph 36.8 mph N/A   Scattered Clouds
1:55 PM 87.8 °F 87.6 °F 60.8 °F 40% 29.88 in 10.0 mi SSW 21.9 mph 33.4 mph N/A   Scattered Clouds
2:15 PM 89.6 °F 88.9 °F 59.0 °F 36% 29.87 in 10.0 mi SSW 28.8 mph 39.1 mph N/A   Partly Cloudy
2:35 PM 89.6 °F 88.9 °F 59.0 °F 36% 29.87 in 10.0 mi SSW 21.9 mph 34.5 mph N/A   Clear
2:55 PM 89.6 °F 88.9 °F 59.0 °F 36% 29.87 in 10.0 mi South 24.2 mph 35.7 mph N/A   Clear
3:15 PM 89.6 °F 88.9 °F 59.0 °F 36% 29.86 in 10.0 mi SSW 21.9 mph 32.2 mph N/A   Partly Cloudy
3:35 PM 89.6 °F 88.9 °F 59.0 °F 36% 29.86 in 10.0 mi SSW 23.0 mph 33.4 mph N/A   Clear
3:55 PM 89.6 °F 88.9 °F 59.0 °F 36% 29.86 in 10.0 mi SSW 21.9 mph 33.4 mph N/A   Partly Cloudy
4:15 PM 89.6 °F 89.5 °F 60.8 °F 38% 29.87 in 10.0 mi SW 20.7 mph 33.4 mph N/A   Scattered Clouds
4:35 PM 89.6 °F 89.5 °F 60.8 °F 38% 29.87 in 10.0 mi SSW 20.7 mph 28.8 mph N/A   Partly Cloudy
4:55 PM 87.8 °F 87.6 °F 60.8 °F 40% 29.87 in 10.0 mi SSW 20.7 mph - N/A   Partly Cloudy
5:15 PM 87.8 °F 87.6 °F 60.8 °F 40% 29.87 in 10.0 mi SSW 16.1 mph 24.2 mph N/A   Scattered Clouds
5:35 PM 87.8 °F 87.6 °F 60.8 °F 40% 29.86 in 10.0 mi SSW 20.7 mph 27.6 mph N/A   Scattered Clouds
5:55 PM 87.8 °F 87.6 °F 60.8 °F 40% 29.87 in 10.0 mi SSW 19.6 mph 28.8 mph N/A   Scattered Clouds
6:15 PM 86.0 °F 86.1 °F 60.8 °F 43% 29.86 in 10.0 mi SSW 17.3 mph 26.5 mph N/A   Partly Cloudy
6:35 PM 84.2 °F 84.4 °F 60.8 °F 45% 29.85 in 10.0 mi SSW 16.1 mph 23.0 mph N/A   Clear
6:55 PM 84.2 °F 84.4 °F 60.8 °F 45% 29.85 in 10.0 mi South 13.8 mph 20.7 mph N/A   Clear
7:15 PM 82.4 °F 82.9 °F 60.8 °F 48% 29.85 in 10.0 mi South 11.5 mph - N/A   Clear
7:35 PM 80.6 °F 81.1 °F 59.0 °F 48% 29.86 in 10.0 mi South 12.7 mph - N/A   Clear
7:55 PM 78.8 °F - 59.0 °F 51% 29.85 in 10.0 mi South 10.4 mph - N/A   Clear
8:15 PM 78.8 °F - 59.0 °F 51% 29.86 in 10.0 mi South 10.4 mph - N/A   Scattered Clouds
8:35 PM 78.8 °F - 59.0 °F 51% 29.87 in 10.0 mi South 8.1 mph - N/A   Mostly Cloudy
8:55 PM 78.8 °F - 59.0 °F 51% 29.85 in 10.0 mi South 12.7 mph - N/A   Mostly Cloudy
9:15 PM 77.0 °F - 59.0 °F 54% 29.84 in 10.0 mi South 15.0 mph - N/A   Partly Cloudy
9:35 PM 78.8 °F - 59.0 °F 51% 29.83 in 10.0 mi South 15.0 mph 21.9 mph N/A   Clear
9:55 PM 78.8 °F - 59.0 °F 51% 29.83 in 10.0 mi South 15.0 mph 21.9 mph N/A   Clear
10:15 PM 78.8 °F - 57.2 °F 47% 29.83 in 10.0 mi South 13.8 mph 20.7 mph N/A   Clear
10:35 PM 78.8 °F - 57.2 °F 47% 29.84 in 10.0 mi South 12.7 mph 20.7 mph N/A   Clear
10:55 PM 78.8 °F - 55.4 °F 44% 29.85 in 10.0 mi SSW 11.5 mph 21.9 mph N/A   Clear
11:15 PM 78.8 °F - 55.4 °F 44% 29.86 in 10.0 mi SSW 9.2 mph 16.1 mph N/A   Clear
11:35 PM 77.0 °F - 55.4 °F 47% 29.87 in 10.0 mi SSW 11.5 mph - N/A   Mostly Cloudy
11:55 PM 77.0 °F - 55.4 °F 47% 29.86 in 10.0 mi SSW 12.7 mph - N/A   Mostly Cloudy